Flag for Saudi Arabia Weather past 2 weeks in Makkah, Saudi Arabia

Now
84 °F

Sunny.


Feels Like: 86 °F
Forecast: 82 / 104 °F
Wind: No wind

Location: Mecca Airport


UV Index: 10 (Very high)

Visibility: 10 mi


Pressure: 29.80 "Hg

Humidity: 51%

Dew point: 64 °F

Location of MakkahLocation

Historic Weather in Makkah

°F

Makkah temperature yesterday

Maximum temperature yesterday: 104 °F (at 2:00 PM)
Minimum temperature yesterday: 84 °F (at 5:00 AM)
Average temperature yesterday: 93 °F

Past Weeks' High & Low Weather Summary

 TemperatureHumidityPressure
High104 °F (Apr 16, 2:00 PM)66% (Apr 8, 5:00 AM)30.09 "Hg (Apr 8, 5:00 AM)
Low68 °F (Apr 4, 6:00 AM)13% (Apr 4, 2:00 PM)29.65 "Hg (Apr 2, 6:00 AM)
Average88 °F44%29.83 "Hg
* Reported Apr 2 6:00 AM — Apr 17 6:00 AM, Makkah, Weather by CustomWeather, © 2014

Note: Actual official high and low records may vary slightly from our data, if they occured in-between our weather recording intervals... More about our weather records

Advertising

Historic Weather Conditions — Data for Previous 24 hours

 ConditionsComfort  
Time TempWeatherWind HumidityBarometerVisibility
6:00 AM
Apr 17
84 °FSunny.No wind51%29.77 "Hg10 mi
5:00 AM84 °FClear.No wind58%29.74 "Hg10 mi
4:00 AM86 °FClear.No wind52%29.77 "Hg10 mi
3:00 AM88 °FClear.No wind49%29.77 "Hg10 mi
2:00 AM88 °FClear.No wind52%29.77 "Hg10 mi
1:00 AM88 °FClear.No wind52%29.77 "Hg10 mi
12:00 AM88 °FClear.No wind52%29.80 "Hg10 mi
11:00 PM
Apr 16
90 °FClear.No wind49%29.83 "Hg10 mi
10:00 PM90 °FClear.No wind46%29.80 "Hg10 mi
9:00 PM90 °FClear.No wind46%29.80 "Hg10 mi
8:00 PM90 °FClear.No wind46%29.80 "Hg10 mi
7:00 PM91 °FClear.No wind46%29.80 "Hg10 mi
6:00 PM95 °FSunny.No wind39%29.77 "Hg10 mi
5:00 PM97 °FSunny.5 mph37%29.77 "Hg10 mi
4:00 PM100 °FSunny.7 mph31%29.77 "Hg10 mi
3:00 PM104 °FSunny.6 mph28%29.77 "Hg10 mi
2:00 PM104 °FSunny.5 mph23%29.77 "Hg10 mi
1:00 PM102 °FSunny.5 mph24%29.80 "Hg10 mi
12:00 PM102 °FSunny.3 mph24%29.83 "Hg10 mi
11:00 AM100 °FSunny.3 mph25%29.83 "Hg10 mi
10:00 AM99 °FSunny.No wind29%29.83 "Hg10 mi
9:00 AM93 °FSunny.No wind34%29.83 "Hg10 mi
8:00 AM88 °FSunny.No wind46%29.83 "Hg10 mi
7:00 AM84 °FSunny.No wind62%29.80 "Hg10 mi
Weather by CustomWeather, © 2014

See weather overview